This is the latest recevied weather packets stored in our database for station/object N8HON. If no packets are shown the sender has not sent any weather packets the latest 10 day(s).
| Time | Temp. | Humidity | Pressure | Rain* | Wind** | Luminosity | Snow |
|---|---|---|---|---|---|---|---|
| 1777370941 | 8.89° C | 93% | 1017.4 hPa | 4.32 mm | - | 0 W/m² | - |
| 1777370636 | 8.89° C | 92% | 1017.3 hPa | 3.05 mm | - | 0 W/m² | - |
| 1777370333 | 8.89° C | 92% | 1016.5 hPa | 3.05 mm | - | 0 W/m² | - |
| 1777370028 | 8.89° C | 91% | 1016.5 hPa | 1.27 mm | - | 0 W/m² | - |
| 1777369727 | 8.89° C | 90% | 1016 hPa | 0 mm | - | 0 W/m² | - |
| 1777369425 | 8.89° C | 90% | 1015.8 hPa | 0 mm | - | 0 W/m² | - |
| 1777369121 | 8.89° C | 89% | 1015.8 hPa | 0 mm | - | 0 W/m² | - |
| 1777368820 | 8.89° C | 89% | 1016.2 hPa | 0 mm | - | 0 W/m² | - |
| 1777368514 | 8.89° C | 90% | 1016.4 hPa | 0 mm | - | 0 W/m² | - |
| 1777368212 | 8.89° C | 90% | 1016.5 hPa | 0 mm | - | 0 W/m² | - |
| 1777367908 | 8.89° C | 90% | 1016.4 hPa | 0 mm | - | 0 W/m² | - |
| 1777367605 | 8.89° C | 91% | 1016.5 hPa | 0 mm | - | 0 W/m² | - |
| 1777367301 | 8.89° C | 90% | 1016.5 hPa | 1.78 mm | - | 0 W/m² | - |
| 1777367001 | 8.89° C | 91% | 1016.5 hPa | 1.78 mm | - | 0 W/m² | - |
| 1777366696 | 8.89° C | 90% | 1017.1 hPa | 0 mm | - | 0 W/m² | - |
| 1777366391 | 9.44° C | 89% | 1017.1 hPa | 0 mm | - | 0 W/m² | - |
| 1777366087 | 9.44° C | 85% | 1017.2 hPa | 1.27 mm | - | 0 W/m² | - |
| 1777365783 | 10° C | 82% | 1017 hPa | 1.27 mm | - | 0 W/m² | - |
| 1777365479 | 10.56° C | 79% | 1016.8 hPa | 0 mm | - | 0 W/m² | - |
| 1777365177 | 11.11° C | 72% | 1016.8 hPa | 0 mm | - | 0 W/m² | - |
| 1777364876 | 11.11° C | 71% | 1017.5 hPa | 0 mm | - | 0 W/m² | - |
| 1777364572 | 11.11° C | 71% | 1017.6 hPa | 0 mm | - | 0 W/m² | - |
| 1777364269 | 11.11° C | 71% | 1017.8 hPa | 0 mm | - | 0 W/m² | - |
| 1777363965 | 11.11° C | 70% | 1017.8 hPa | 0 mm | - | 0 W/m² | - |
| 1777363662 | 11.11° C | 71% | 1018.1 hPa | 0 mm | - | 0 W/m² | - |
* Rain latest hour (hover to see other rain measurements)
** Current wind speed in m/s (hover to see current wind gust speed)